Location: Palomar Mountain Lodge
(33.3110°N, 116.8495°W)
Time: 17:21:14
(UTC-07:00)

USA 238 DEB - Pass Details

Date: 19 May 2017
Orbit: 1084 x 1129 km, 63.4° (Epoch: 25 August)

Event Time Altitude Azimuth Distance (km) Brightness Sun altitude
Rises 20:49:58 0° 324° (NW) 3,938 8.1 -12.9°
Reaches altitude 10° 20:52:41 10° 321° (NW) 2,983 7.3 -13.3°
Maximum altitude 20:59:35 56° 245° (WSW) 1,312 4.3 -14.5°
Enters shadow 21:06:24 11° 169° (S) 2,954 5.6 -15.6°
